Wetterdaten: aktuell Donnerstag, 03.09.2026 15:15
Datum Zeit Temp. A. Feuchte A. Luftdruck Regen Wind Richtung Richtung Taupunkt Windchill
03.09.2026 15:15 25,2 °C 32 % 1011,9 hPa 0,0 l/m² 10,4 km/h (2 Bft) N±22.5° 5 ° 7,3 °C 24,3 °C
03.09.2026 15:13 25,3 °C 30 % 1011,9 hPa 0,0 l/m² 10,4 km/h (2 Bft) N±22.5° 5 ° 6,5 °C 24,4 °C
03.09.2026 15:11 25,3 °C 30 % 1011,9 hPa 0,0 l/m² 11,3 km/h (2 Bft) NW 320 ° 6,5 °C 24,3 °C
03.09.2026 15:08 25,3 °C 30 % 1011,9 hPa 0,0 l/m² 8,0 km/h (2 Bft) W 265 ° 6,5 °C 24,9 °C
03.09.2026 15:06 25,4 °C 30 % 1011,8 hPa 0,0 l/m² 8,3 km/h (2 Bft) SW 235 ° 6,6 °C 25,0 °C
03.09.2026 15:04 25,4 °C 30 % 1011,8 hPa 0,0 l/m² 8,3 km/h (2 Bft) SW 235 ° 6,6 °C 25,0 °C
03.09.2026 15:02 25,4 °C 29 % 1011,8 hPa 0,0 l/m² 16,1 km/h (3 Bft) S-SW 205 ° 6,1 °C 23,6 °C
03.09.2026 15:00 25,4 °C 29 % 1011,8 hPa 0,0 l/m² 11,8 km/h (2 Bft) SW±22.5° 225 ° 6,1 °C 24,3 °C
03.09.2026 14:58 25,3 °C 30 % 1011,9 hPa 0,0 l/m² 11,8 km/h (2 Bft) SW±22.5° 225 ° 6,5 °C 24,2 °C
03.09.2026 14:56 25,3 °C 30 % 1011,9 hPa 0,0 l/m² 3,7 km/h (1 Bft) NW±22.5° 305 ° 6,5 °C 25,3 °C
03.09.2026 14:55 25,3 °C 29 % 1011,9 hPa 0,0 l/m² 2,9 km/h (1 Bft) N-NW±67.5° 340 ° 6,0 °C 25,3 °C
03.09.2026 14:53 25,3 °C 29 % 1011,9 hPa 0,0 l/m² 3,3 km/h (1 Bft) N-NO±45° 15 ° 6,0 °C 25,3 °C
03.09.2026 14:51 25,3 °C 29 % 1011,9 hPa 0,0 l/m² 3,3 km/h (1 Bft) N-NO±45° 15 ° 6,0 °C 25,3 °C
03.09.2026 14:49 25,2 °C 29 % 1011,9 hPa 0,0 l/m² 2,9 km/h (1 Bft) NO±67.5° 45 ° 5,9 °C 25,2 °C
03.09.2026 14:47 25,2 °C 29 % 1011,9 hPa 0,0 l/m² 14,1 km/h (3 Bft) SO±67.5° 140 ° 5,9 °C 23,7 °C
03.09.2026 14:45 25,2 °C 29 % 1011,9 hPa 0,0 l/m² 9,0 km/h (2 Bft) O±67.5° 80 ° 5,9 °C 24,6 °C
03.09.2026 14:43 25,1 °C 29 % 1011,9 hPa 0,0 l/m² 9,0 km/h (2 Bft) O±67.5° 80 ° 5,8 °C 24,5 °C
03.09.2026 14:41 25,1 °C 30 % 1011,9 hPa 0,0 l/m² 4,7 km/h (1 Bft) O-NO±67.5° 70 ° 6,3 °C 25,1 °C
03.09.2026 14:39 25,1 °C 30 % 1011,9 hPa 0,0 l/m² 8,3 km/h (2 Bft) O-SO±45° 115 ° 6,3 °C 24,6 °C
03.09.2026 14:37 25,0 °C 30 % 1011,9 hPa 0,0 l/m² 8,3 km/h (2 Bft) O-SO±45° 115 ° 6,2 °C 24,5 °C
03.09.2026 14:35 24,8 °C 31 % 1011,9 hPa 0,0 l/m² 5,6 km/h (1 Bft) SO±22.5° 130 ° 6,5 °C 24,8 °C
03.09.2026 14:33 24,8 °C 31 % 1011,9 hPa 0,0 l/m² 7,6 km/h (2 Bft) NO±22.5° 35 ° 6,5 °C 24,5 °C
03.09.2026 14:31 24,8 °C 30 % 1011,9 hPa 0,0 l/m² 4,0 km/h (1 Bft) O-SO±67.5° 115 ° 6,0 °C 24,8 °C
03.09.2026 14:28 24,7 °C 31 % 1011,9 hPa 0,0 l/m² 4,0 km/h (1 Bft) O-SO±67.5° 115 ° 6,4 °C 24,7 °C
03.09.2026 14:26 24,7 °C 31 % 1011,9 hPa 0,0 l/m² 7,2 km/h (2 Bft) SW±45° 215 ° 6,4 °C 24,5 °C
03.09.2026 14:24 24,7 °C 31 % 1011,9 hPa 0,0 l/m² 3,0 km/h (1 Bft) S±67.5° 175 ° 6,4 °C 24,7 °C
03.09.2026 14:22 24,7 °C 31 % 1011,9 hPa 0,0 l/m² 5,4 km/h (1 Bft) S-SW 205 ° 6,4 °C 24,7 °C
03.09.2026 14:20 24,7 °C 31 % 1011,9 hPa 0,0 l/m² 5,4 km/h (1 Bft) S-SW 205 ° 6,4 °C 24,7 °C
03.09.2026 14:18 24,7 °C 31 % 1011,9 hPa 0,0 l/m² 13,8 km/h (3 Bft) W-SW±22.5° 240 ° 6,4 °C 23,1 °C
03.09.2026 14:16 24,7 °C 31 % 1011,9 hPa 0,0 l/m² 4,6 km/h (1 Bft) W-NW±45° 295 ° 6,4 °C 24,7 °C
03.09.2026 14:15 24,7 °C 31 % 1011,9 hPa 0,0 l/m² 4,6 km/h (1 Bft) W-NW±45° 295 ° 6,4 °C 24,7 °C
03.09.2026 14:13 24,7 °C 31 % 1011,9 hPa 0,0 l/m² 2,3 km/h (1 Bft) O-NO±67.5° 70 ° 6,4 °C 24,7 °C
03.09.2026 14:11 24,7 °C 31 % 1011,9 hPa 0,0 l/m² 7,9 km/h (2 Bft) O±67.5° 100 ° 6,4 °C 24,3 °C
03.09.2026 14:09 24,7 °C 31 % 1011,9 hPa 0,0 l/m² 4,3 km/h (1 Bft) O±22.5° 95 ° 6,4 °C 24,7 °C
03.09.2026 14:07 24,7 °C 31 % 1011,9 hPa 0,0 l/m² 4,3 km/h (1 Bft) O±22.5° 95 ° 6,4 °C 24,7 °C
03.09.2026 14:05 24,7 °C 31 % 1011,9 hPa 0,0 l/m² 9,8 km/h (2 Bft) O-SO±45° 120 ° 6,4 °C 23,9 °C
03.09.2026 14:03 24,7 °C 31 % 1011,9 hPa 0,0 l/m² 8,1 km/h (2 Bft) SO±67.5° 125 ° 6,4 °C 24,3 °C
03.09.2026 14:01 24,7 °C 31 % 1011,9 hPa 0,0 l/m² 7,4 km/h (2 Bft) SO±45° 145 ° 6,4 °C 24,4 °C
03.09.2026 13:59 24,7 °C 31 % 1011,9 hPa 0,0 l/m² 7,4 km/h (2 Bft) SO±45° 145 ° 6,4 °C 24,4 °C
03.09.2026 13:57 24,7 °C 31 % 1011,9 hPa 0,0 l/m² 5,6 km/h (1 Bft) O-SO±22.5° 105 ° 6,4 °C 24,7 °C
03.09.2026 13:55 24,7 °C 31 % 1011,9 hPa 0,0 l/m² 5,6 km/h (1 Bft) O-SO±22.5° 105 ° 6,4 °C 24,7 °C
_ Min-Zeit 06:10 14:43 15:00 - 00:00 - - 14:43 06:10
Minimum _ 14,7 °C 29 % 1011,8 hPa - 0,0 km/h (0 Bft) - - 5,8 °C 14,7 °C
_ Max-Zeit 15:00 06:06 06:10 00:00 15:02 - - 10:41 14:51
Maximum _ 25,4 °C 66 % 1014,3 hPa 0,0 l/m² 16,1 km/h
S-SW (3 Bft)
- - 10,0 °C 25,3 °C
Durchschnitt _ 18,2 °C 54 % 1013,7 hPa #0,0 l/m² 2,6 km/h (1 Bft) SO - 8,2 °C 18,1 °C